Location: *
(51.1248°S, 108.4023°W)
Time: 03:07:09
(UTC+00:00)

Cosmos 2150 Rocket - Pass Details

Date: 15 June 2021
Orbit: 749 x 808 km, 74.0° (Epoch: 31 July)

Event Time Altitude Azimuth Distance (km) Brightness Sun altitude
Rises 12:35:25 0° 346° (NNW) 3,299 7.2 -23.9°
Reaches altitude 10° 12:37:48 10° 348° (NNW) 2,384 6.5 -23.5°
Maximum altitude 12:43:12 69° 70° (ENE) 874 4.4 -22.7°
Drops below altitude 10° 12:48:44 10° 152° (SSE) 2,430 6.8 -21.9°
Sets 12:51:10 0° 153° (SSE) 3,369 7.5 -21.5°
